LOT10 EPKK-KORD

Flight info

Callsign LOT10
Flight time N/A
Altitude 36000
Route LUMVE2J LUMVE L619 NUDRO DCT BINKA DCT SONAL DCT BIVKI DCT GUNPA/M084F360 DCT 63N010W/M085F380 64N020W 64N030W 64N040W 63N050W DCT MAXAR N968B MUSLO/N0481F380 N968B LOPVI/N0486F400 DCT PELSI DCT SOCAN DCT VETRO DCT SSM WYNDE3
Aircraft B789/H-SDE1E2E3FGHIJ2J3J4J5M1RWXY/LB1D1

Departure

Time 2026-05-01 11:30
Airport Kraków John Paul II International Airport (EPKK)

Arrival

Time N/A
Airport Chicago O'Hare International Airport (KORD)
Time Latitude Longitude Altitude Speed Heading
2026-05-01 11:19 50.07578 19.80163 795 ft 0 kts 347°
2026-05-01 11:25 50.07573 19.80165 795 ft 2 kts 347°
2026-05-01 11:25 50.07559 19.80170 795 ft 3 kts 354°
2026-05-01 11:26 50.07543 19.80168 795 ft 3 kts 41°
2026-05-01 11:26 50.07535 19.80152 795 ft 0 kts 75°
2026-05-01 11:28 50.07539 19.80186 795 ft 9 kts 78°
2026-05-01 11:28 50.07559 19.80339 795 ft 19 kts 74°
2026-05-01 11:28 50.07669 19.80391 795 ft 21 kts 350°
2026-05-01 11:29 50.07936 19.80306 794 ft 22 kts 346°
2026-05-01 11:29 50.08003 19.80152 794 ft 25 kts 265°
2026-05-01 11:29 50.07754 19.78348 796 ft 142 kts 258°
2026-05-01 11:30 50.07526 19.76637 960 ft 167 kts 265°
2026-05-01 11:30 50.07299 19.74953 1595 ft 157 kts 259°
2026-05-01 11:30 50.07036 19.73301 2170 ft 158 kts 260°
2026-05-01 11:30 50.06789 19.71630 2704 ft 161 kts 262°
2026-05-01 11:31 50.06972 19.69946 2894 ft 168 kts 307°
2026-05-01 11:31 50.07903 19.68856 3333 ft 162 kts 326°
2026-05-01 11:31 50.08704 19.67609 3715 ft 166 kts 308°
2026-05-01 11:31 50.09388 19.66103 4011 ft 179 kts 307°
2026-05-01 11:32 50.10150 19.64441 4244 ft 198 kts 308°
2026-05-01 11:32 50.11002 19.62589 4492 ft 221 kts 307°
2026-05-01 11:32 50.11927 19.60580 4988 ft 237 kts 307°
2026-05-01 11:32 50.12916 19.58432 5486 ft 250 kts 308°
2026-05-01 11:33 50.13944 19.56194 6091 ft 259 kts 308°
2026-05-01 11:33 50.15014 19.53866 6620 ft 268 kts 308°
2026-05-01 11:33 50.16119 19.51458 7245 ft 279 kts 309°
2026-05-01 11:33 50.17273 19.48959 7878 ft 288 kts 311°
2026-05-01 11:34 50.18708 19.46836 8531 ft 291 kts 328°
2026-05-01 11:34 50.20375 19.45003 9207 ft 295 kts 329°
2026-05-01 11:34 50.21877 19.43263 9800 ft 299 kts 326°
2026-05-01 11:34 50.23488 19.41132 10479 ft 305 kts 323°
2026-05-01 11:35 50.25090 19.38950 11115 ft 306 kts 325°
2026-05-01 11:35 50.26734 19.36795 11830 ft 310 kts 326°
2026-05-01 11:35 50.28404 19.34637 12542 ft 313 kts 326°
2026-05-01 11:35 50.30088 19.32435 13277 ft 317 kts 326°
2026-05-01 11:36 50.31207 19.30961 13767 ft 319 kts 326°
2026-05-01 11:36 50.32915 19.28711 14453 ft 323 kts 327°
2026-05-01 11:36 50.34646 19.26439 15050 ft 327 kts 327°
2026-05-01 11:36 50.36396 19.24139 15664 ft 330 kts 327°
2026-05-01 11:37 50.38163 19.21810 16292 ft 333 kts 327°
2026-05-01 11:37 50.39947 19.19458 16930 ft 337 kts 327°
2026-05-01 11:37 50.41746 19.17083 17580 ft 339 kts 327°
2026-05-01 11:37 50.43557 19.14691 18245 ft 341 kts 327°
2026-05-01 11:38 50.45374 19.12287 18863 ft 343 kts 327°
2026-05-01 11:38 50.47197 19.09874 19457 ft 343 kts 327°
2026-05-01 11:38 50.49027 19.07447 20056 ft 343 kts 327°
2026-05-01 11:38 50.50850 19.05029 20647 ft 343 kts 327°
2026-05-01 11:39 50.52674 19.02608 21148 ft 347 kts 327°
2026-05-01 11:39 50.54530 19.00151 21335 ft 359 kts 327°
2026-05-01 11:39 50.56461 18.97582 21559 ft 366 kts 327°
2026-05-01 11:39 50.58409 18.94975 21767 ft 368 kts 327°
2026-05-01 11:40 50.60369 18.92356 21984 ft 370 kts 327°
2026-05-01 11:40 50.62332 18.89738 22204 ft 370 kts 327°
2026-05-01 11:40 50.64293 18.87117 22412 ft 369 kts 327°
2026-05-01 11:40 50.66250 18.84497 22625 ft 368 kts 327°
2026-05-01 11:41 50.68199 18.81885 22826 ft 368 kts 327°
2026-05-01 11:41 50.70147 18.79273 23053 ft 368 kts 327°
2026-05-01 11:41 50.72097 18.76655 23251 ft 367 kts 327°
2026-05-01 11:41 50.74041 18.74041 23464 ft 367 kts 327°
2026-05-01 11:42 50.75983 18.71426 23659 ft 367 kts 327°
2026-05-01 11:42 50.77923 18.68812 23887 ft 366 kts 327°
2026-05-01 11:42 50.79861 18.66197 24059 ft 366 kts 327°
2026-05-01 11:42 50.81796 18.63584 24240 ft 366 kts 327°
2026-05-01 11:43 50.83729 18.60969 24408 ft 365 kts 327°
2026-05-01 11:43 50.85629 18.58398 24586 ft 364 kts 327°
2026-05-01 11:43 50.87582 18.55752 24770 ft 364 kts 327°
2026-05-01 11:44 50.91401 18.50567 25130 ft 363 kts 327°
2026-05-01 11:44 50.93318 18.47961 25310 ft 363 kts 327°
2026-05-01 11:44 50.95233 18.45355 25494 ft 363 kts 327°
2026-05-01 11:44 50.97144 18.42750 25669 ft 362 kts 327°
2026-05-01 11:45 50.99056 18.40141 25878 ft 362 kts 327°
2026-05-01 11:45 51.00965 18.37534 26051 ft 362 kts 327°
2026-05-01 11:45 51.02870 18.34929 26244 ft 361 kts 327°
2026-05-01 11:45 51.04771 18.32327 26428 ft 360 kts 327°
2026-05-01 11:46 51.06669 18.29726 26615 ft 360 kts 327°
2026-05-01 11:46 51.08566 18.27124 26808 ft 360 kts 327°
2026-05-01 11:46 51.10460 18.24521 26994 ft 359 kts 326°
2026-05-01 11:46 51.12353 18.21918 27208 ft 359 kts 326°
2026-05-01 11:47 51.14241 18.19319 27388 ft 358 kts 326°
2026-05-01 11:47 51.16127 18.16720 27585 ft 358 kts 326°
2026-05-01 11:47 51.18009 18.14123 27770 ft 358 kts 326°
2026-05-01 11:47 51.19890 18.11524 27974 ft 358 kts 326°
2026-05-01 11:48 51.21770 18.08925 28179 ft 357 kts 326°
2026-05-01 11:48 51.23645 18.06330 28373 ft 357 kts 326°
2026-05-01 11:48 51.25516 18.03736 28580 ft 357 kts 326°
2026-05-01 11:48 51.27387 18.01140 28781 ft 356 kts 326°
2026-05-01 11:49 51.29255 17.98546 28985 ft 355 kts 326°
2026-05-01 11:49 51.31118 17.95954 29186 ft 355 kts 326°
2026-05-01 11:49 51.32978 17.93365 29394 ft 355 kts 326°
2026-05-01 11:49 51.34842 17.90767 29603 ft 355 kts 326°
2026-05-01 11:50 51.36680 17.88203 29804 ft 354 kts 326°
2026-05-01 11:50 51.38532 17.85616 30019 ft 354 kts 326°
2026-05-01 11:50 51.40388 17.83021 30228 ft 353 kts 326°
2026-05-01 11:50 51.42239 17.80429 30433 ft 353 kts 326°
2026-05-01 11:51 51.44086 17.77840 30620 ft 352 kts 326°
2026-05-01 11:51 51.45926 17.75258 30783 ft 351 kts 326°
2026-05-01 11:51 51.47762 17.72680 30969 ft 351 kts 326°
2026-05-01 11:51 51.49599 17.70096 31137 ft 350 kts 326°
2026-05-01 11:52 51.51428 17.67521 31334 ft 350 kts 325°
2026-05-01 11:52 51.53254 17.64948 31516 ft 349 kts 325°
2026-05-01 11:52 51.55078 17.62375 31708 ft 349 kts 325°
2026-05-01 11:52 51.56896 17.59806 31888 ft 348 kts 325°
2026-05-01 11:53 51.58710 17.57242 32075 ft 347 kts 325°
2026-05-01 11:53 51.60523 17.54674 32263 ft 347 kts 325°
2026-05-01 11:53 51.62333 17.52110 32451 ft 346 kts 325°
2026-05-01 11:53 51.64136 17.49552 32643 ft 346 kts 325°
2026-05-01 11:54 51.65936 17.46996 32831 ft 345 kts 325°
2026-05-01 11:54 51.67733 17.44440 33023 ft 344 kts 325°
2026-05-01 11:54 51.69527 17.41886 33223 ft 344 kts 325°
2026-05-01 11:54 51.71319 17.39332 33409 ft 343 kts 324°
2026-05-01 11:55 51.73107 17.36783 33595 ft 343 kts 324°
2026-05-01 11:55 51.74866 17.34269 33808 ft 342 kts 324°
2026-05-01 11:55 51.76641 17.31732 33987 ft 341 kts 324°
2026-05-01 11:55 51.78410 17.29199 34190 ft 339 kts 324°
2026-05-01 11:56 51.80176 17.26670 34313 ft 339 kts 324°
2026-05-01 11:56 51.81944 17.24136 34362 ft 341 kts 324°
2026-05-01 11:56 51.85499 17.19027 34322 ft 342 kts 324°
2026-05-01 11:57 51.89054 17.13908 34079 ft 342 kts 324°
2026-05-01 11:57 51.90830 17.11347 33902 ft 342 kts 324°
2026-05-01 11:57 51.92619 17.08767 33814 ft 347 kts 324°
2026-05-01 11:58 51.94423 17.06167 34020 ft 344 kts 324°
2026-05-01 11:58 51.96199 17.03601 34374 ft 339 kts 324°
2026-05-01 11:59 52.01540 16.95885 34526 ft 349 kts 323°
2026-05-01 11:59 52.05238 16.90557 34209 ft 368 kts 323°
2026-05-01 12:00 52.09135 16.85045 34563 ft 366 kts 324°
2026-05-01 12:00 52.11039 16.82358 34950 ft 359 kts 323°
2026-05-01 12:00 52.14684 16.76983 35396 ft 355 kts 322°
2026-05-01 12:01 52.16534 16.74262 35300 ft 361 kts 322°
2026-05-01 12:01 52.18398 16.71515 35437 ft 360 kts 322°
2026-05-01 12:01 52.20241 16.68818 35754 ft 353 kts 323°
2026-05-01 12:01 52.22082 16.66192 35921 ft 351 kts 324°
2026-05-01 12:02 52.23966 16.63550 35407 ft 370 kts 320°
2026-05-01 12:02 52.25889 16.60456 34614 ft 398 kts 322°
2026-05-01 12:02 52.27972 16.57375 34363 ft 410 kts 320°
2026-05-01 12:02 52.30094 16.54164 34095 ft 421 kts 322°
2026-05-01 12:03 52.32215 16.51011 34674 ft 408 kts 321°
2026-05-01 12:03 52.34257 16.47964 35605 ft 388 kts 321°
2026-05-01 12:03 52.36196 16.45000 36264 ft 376 kts 321°
2026-05-01 12:03 52.38154 16.42116 36161 ft 382 kts 322°
2026-05-01 12:04 52.40158 16.39283 36381 ft 378 kts 323°
2026-05-01 12:04 52.44032 16.33264 36344 ft 388 kts 319°
2026-05-01 12:05 52.48042 16.27266 36355 ft 394 kts 322°
2026-05-01 12:05 52.54200 16.18022 36372 ft 406 kts 321°
2026-05-01 12:06 52.58426 16.11703 36369 ft 415 kts 321°
2026-05-01 12:06 52.62695 16.05248 36367 ft 424 kts 320°
2026-05-01 12:07 52.67087 15.98609 36372 ft 433 kts 320°
2026-05-01 12:07 52.71570 15.91807 36373 ft 442 kts 320°
2026-05-01 12:08 52.76139 15.84855 36371 ft 451 kts 320°
2026-05-01 12:08 52.80792 15.77754 36374 ft 460 kts 320°
2026-05-01 12:09 52.85529 15.70502 36372 ft 468 kts 320°
2026-05-01 12:09 52.90335 15.63121 36384 ft 475 kts 319°
2026-05-01 12:10 52.97682 15.51793 36378 ft 485 kts 319°
2026-05-01 12:11 53.05133 15.40248 36375 ft 489 kts 319°
2026-05-01 12:11 53.10089 15.32537 36379 ft 488 kts 319°
2026-05-01 12:12 53.15047 15.24798 36380 ft 488 kts 319°
2026-05-01 12:12 53.20000 15.17040 36379 ft 489 kts 319°
2026-05-01 12:13 53.24950 15.09261 36380 ft 489 kts 319°
2026-05-01 12:13 53.29894 15.01467 36383 ft 489 kts 319°
2026-05-01 12:14 53.34799 14.93707 36381 ft 489 kts 319°
2026-05-01 12:14 53.39741 14.85864 36379 ft 489 kts 318°
2026-05-01 12:15 53.44666 14.78018 36369 ft 488 kts 318°
2026-05-01 12:15 53.49586 14.70157 36374 ft 488 kts 318°
2026-05-01 12:16 53.54505 14.62271 36370 ft 489 kts 318°
2026-05-01 12:16 53.59420 14.54363 36374 ft 489 kts 318°
2026-05-01 12:17 53.64343 14.46417 36379 ft 490 kts 318°
2026-05-01 12:17 53.69258 14.38454 36387 ft 490 kts 317°
2026-05-01 12:18 53.74173 14.30467 36391 ft 490 kts 317°
2026-05-01 12:18 53.79397 14.23150 36395 ft 489 kts 324°
2026-05-01 12:19 53.84767 14.16153 36400 ft 490 kts 324°
2026-05-01 12:19 53.90193 14.09130 36415 ft 491 kts 324°
2026-05-01 12:20 53.95606 14.02064 36406 ft 491 kts 323°
2026-05-01 12:20 54.01016 13.94996 36398 ft 490 kts 323°
2026-05-01 12:21 54.06421 13.87903 36399 ft 491 kts 323°
2026-05-01 12:21 54.11819 13.80798 36400 ft 490 kts 323°
2026-05-01 12:22 54.16302 13.74880 36397 ft 490 kts 323°
2026-05-01 12:22 54.22602 13.66531 36393 ft 490 kts 323°
2026-05-01 12:23 54.27994 13.59362 36389 ft 491 kts 323°
2026-05-01 12:23 54.32476 13.53383 36399 ft 491 kts 323°
2026-05-01 12:24 54.37869 13.46167 36391 ft 492 kts 323°
2026-05-01 12:24 54.43256 13.38933 36406 ft 492 kts 323°
2026-05-01 12:25 54.51335 13.28039 36401 ft 492 kts 323°
2026-05-01 12:26 54.56725 13.20739 36398 ft 493 kts 322°
2026-05-01 12:26 54.64766 13.09803 36397 ft 493 kts 322°
2026-05-01 12:27 54.72851 12.98748 36412 ft 494 kts 322°
2026-05-01 12:28 54.80918 12.87660 36395 ft 493 kts 322°
2026-05-01 12:29 54.88910 12.76380 36428 ft 493 kts 316°
2026-05-01 12:29 54.96404 12.64017 36392 ft 495 kts 317°
2026-05-01 12:30 55.03892 12.51626 36390 ft 494 kts 317°
2026-05-01 12:31 55.08861 12.43366 36384 ft 493 kts 317°
2026-05-01 12:31 55.13793 12.35138 36390 ft 493 kts 316°
2026-05-01 12:32 55.18753 12.26831 36386 ft 493 kts 316°
2026-05-01 12:32 55.26185 12.14329 36396 ft 494 kts 316°
2026-05-01 12:33 55.31132 12.05969 36385 ft 494 kts 316°
2026-05-01 12:33 55.36075 11.97586 36393 ft 494 kts 316°
2026-05-01 12:34 55.41019 11.89170 36394 ft 494 kts 316°
2026-05-01 12:34 55.45954 11.80738 36391 ft 494 kts 316°
2026-05-01 12:35 55.50887 11.72278 36394 ft 494 kts 315°
2026-05-01 12:35 55.55781 11.63856 36389 ft 494 kts 315°
2026-05-01 12:36 55.60697 11.55362 36393 ft 495 kts 315°
2026-05-01 12:36 55.65624 11.46820 36391 ft 495 kts 315°
2026-05-01 12:37 55.70535 11.38273 36382 ft 495 kts 315°
2026-05-01 12:37 55.75442 11.29701 36390 ft 494 kts 315°
2026-05-01 12:38 55.80333 11.21125 36384 ft 494 kts 315°
2026-05-01 12:38 55.85223 11.12518 36380 ft 495 kts 315°
2026-05-01 12:39 55.90102 11.03900 36385 ft 494 kts 315°
2026-05-01 12:39 55.94948 10.95305 36381 ft 495 kts 314°
2026-05-01 12:40 55.99819 10.86637 36373 ft 494 kts 314°
2026-05-01 12:40 56.04681 10.77951 36381 ft 494 kts 314°
2026-05-01 12:41 56.09534 10.69246 36373 ft 493 kts 314°
2026-05-01 12:41 56.14380 10.60524 36371 ft 493 kts 314°
2026-05-01 12:42 56.19215 10.51787 36376 ft 493 kts 314°
2026-05-01 12:42 56.24040 10.43034 36373 ft 492 kts 314°
2026-05-01 12:43 56.28831 10.34311 36375 ft 493 kts 314°
2026-05-01 12:43 56.33647 10.25509 36370 ft 492 kts 314°
2026-05-01 12:44 56.38448 10.16701 36365 ft 492 kts 313°
2026-05-01 12:45 56.48034 9.99014 36353 ft 492 kts 313°
2026-05-01 12:45 56.52812 9.90146 36363 ft 491 kts 313°
2026-05-01 12:46 56.57581 9.81260 36354 ft 492 kts 313°
2026-05-01 12:46 56.62340 9.72359 36352 ft 491 kts 313°
2026-05-01 12:47 56.67087 9.63447 36353 ft 491 kts 313°
2026-05-01 12:47 56.71800 9.54564 36354 ft 490 kts 313°
2026-05-01 12:48 56.76535 9.45608 36347 ft 490 kts 313°
2026-05-01 12:48 56.81261 9.36631 36350 ft 491 kts 312°
2026-05-01 12:49 56.85986 9.27621 36355 ft 490 kts 312°
2026-05-01 12:49 56.90698 9.18601 36354 ft 491 kts 312°
2026-05-01 12:50 56.95402 9.09561 36354 ft 490 kts 312°
2026-05-01 12:50 57.00095 9.00508 36353 ft 489 kts 311°
2026-05-01 12:51 57.04780 8.91435 36352 ft 490 kts 311°
2026-05-01 12:52 57.11798 8.77774 36352 ft 489 kts 311°
2026-05-01 12:52 57.18787 8.64091 36351 ft 489 kts 311°
2026-05-01 12:53 57.25778 8.50321 36348 ft 490 kts 311°
2026-05-01 12:54 57.30404 8.41166 36341 ft 490 kts 310°
2026-05-01 12:54 57.37366 8.27318 36339 ft 489 kts 310°
2026-05-01 12:55 57.44298 8.13448 36339 ft 488 kts 310°
2026-05-01 12:56 57.48907 8.04177 36340 ft 488 kts 310°
2026-05-01 12:56 57.53511 7.94883 36338 ft 488 kts 309°
2026-05-01 12:57 57.58107 7.85565 36334 ft 489 kts 309°
2026-05-01 12:57 57.64962 7.71598 36329 ft 487 kts 309°
2026-05-01 12:58 57.69527 7.62251 36326 ft 486 kts 309°
2026-05-01 12:59 57.76349 7.48211 36325 ft 485 kts 309°
2026-05-01 12:59 57.83142 7.34147 36328 ft 485 kts 309°
2026-05-01 13:00 57.89923 7.20021 36331 ft 485 kts 308°
2026-05-01 13:01 57.96690 7.05837 36320 ft 485 kts 308°
2026-05-01 13:02 58.03421 6.91644 36323 ft 487 kts 308°
2026-05-01 13:07 58.53148 5.86161 36277 ft 489 kts 308°
2026-05-01 13:08 58.57730 5.76546 36265 ft 488 kts 308°
2026-05-01 13:08 58.62294 5.66907 36259 ft 488 kts 308°
2026-05-01 13:09 58.66849 5.57262 36256 ft 486 kts 307°
2026-05-01 13:09 58.71353 5.47675 36240 ft 486 kts 307°
2026-05-01 13:10 58.75882 5.38001 36245 ft 485 kts 307°
2026-05-01 13:10 58.80396 5.28312 36252 ft 486 kts 307°
2026-05-01 13:11 58.84177 5.20169 36246 ft 487 kts 307°
2026-05-01 13:11 58.89420 5.08828 36248 ft 486 kts 307°
2026-05-01 13:12 58.93191 5.00635 36249 ft 487 kts 307°
2026-05-01 13:12 58.97660 4.90889 36245 ft 486 kts 307°
2026-05-01 13:13 59.02144 4.81069 36240 ft 486 kts 307°
2026-05-01 13:13 59.06617 4.71231 36232 ft 486 kts 307°
2026-05-01 13:14 59.11084 4.61365 36227 ft 485 kts 306°
2026-05-01 13:14 59.15537 4.51484 36227 ft 485 kts 306°
2026-05-01 13:15 59.19981 4.41584 36222 ft 485 kts 306°
2026-05-01 13:15 59.24422 4.31647 36219 ft 485 kts 306°
2026-05-01 13:16 59.28851 4.21695 36213 ft 485 kts 306°
2026-05-01 13:16 59.33270 4.11722 36207 ft 484 kts 306°
2026-05-01 13:17 59.42072 3.91727 36198 ft 485 kts 306°
2026-05-01 13:18 59.48628 3.76721 36183 ft 485 kts 306°
2026-05-01 13:18 59.53013 3.66629 36184 ft 485 kts 306°
2026-05-01 13:19 59.57393 3.56506 36181 ft 485 kts 306°
2026-05-01 13:20 59.63943 3.41281 36176 ft 485 kts 306°
2026-05-01 13:20 59.68302 3.31095 36172 ft 485 kts 306°
2026-05-01 13:21 59.74830 3.15755 36161 ft 485 kts 306°
2026-05-01 13:21 59.79168 3.05503 36160 ft 485 kts 305°
2026-05-01 13:22 59.83504 2.95211 36153 ft 485 kts 305°
2026-05-01 13:22 59.87824 2.84913 36151 ft 485 kts 305°
2026-05-01 13:23 59.92138 2.74580 36142 ft 485 kts 305°
2026-05-01 13:23 59.96448 2.64213 36140 ft 485 kts 305°
2026-05-01 13:24 60.00746 2.53828 36139 ft 485 kts 305°
2026-05-01 13:25 60.07180 2.38191 36132 ft 485 kts 305°
2026-05-01 13:25 60.11425 2.27818 36127 ft 484 kts 305°
2026-05-01 13:26 60.15691 2.17345 36123 ft 484 kts 304°
2026-05-01 13:26 60.19939 2.06870 36119 ft 483 kts 304°
2026-05-01 13:27 60.24173 1.96382 36113 ft 483 kts 304°
2026-05-01 13:27 60.30504 1.80608 36114 ft 483 kts 304°
2026-05-01 13:28 60.36806 1.64803 36097 ft 482 kts 304°
2026-05-01 13:29 60.45155 1.43693 36104 ft 481 kts 303°
2026-05-01 13:31 60.57642 1.11755 36091 ft 481 kts 303°
2026-05-01 13:32 60.67967 0.85009 36087 ft 480 kts 302°
2026-05-01 13:33 60.78217 0.58151 36077 ft 481 kts 302°
2026-05-01 13:34 60.86398 0.36485 36075 ft 480 kts 302°
2026-05-01 13:35 60.92500 0.20192 36072 ft 479 kts 302°
2026-05-01 13:36 60.98574 0.03860 36064 ft 478 kts 301°
2026-05-01 13:36 61.03451 -0.13728 36070 ft 470 kts 291°
2026-05-01 13:37 61.06422 -0.25655 36068 ft 470 kts 291°
2026-05-01 13:37 61.09410 -0.37688 36066 ft 469 kts 291°
2026-05-01 13:38 61.13854 -0.55726 36067 ft 469 kts 291°
2026-05-01 13:39 61.16804 -0.67776 36059 ft 469 kts 291°
2026-05-01 13:39 61.19737 -0.79830 36047 ft 468 kts 291°
2026-05-01 13:40 61.22660 -0.91902 36050 ft 468 kts 290°
2026-05-01 13:40 61.25570 -1.03992 36050 ft 468 kts 290°
2026-05-01 13:41 61.28470 -1.16102 36055 ft 467 kts 290°
2026-05-01 13:41 61.31350 -1.28201 36048 ft 467 kts 290°
2026-05-01 13:42 61.34222 -1.40335 36049 ft 467 kts 290°
2026-05-01 13:42 61.37060 -1.52388 36044 ft 467 kts 290°
2026-05-01 13:43 61.39908 -1.64553 36048 ft 466 kts 289°
2026-05-01 13:43 61.42746 -1.76746 36037 ft 467 kts 289°
2026-05-01 13:44 61.45573 -1.88956 36039 ft 466 kts 289°
2026-05-01 13:44 61.48384 -2.01173 36040 ft 466 kts 289°
2026-05-01 13:45 61.51188 -2.13422 36044 ft 466 kts 289°
2026-05-01 13:45 61.53975 -2.25672 36037 ft 466 kts 289°
2026-05-01 13:46 61.56760 -2.37982 36041 ft 466 kts 289°
2026-05-01 13:46 61.59508 -2.50196 36030 ft 466 kts 289°
2026-05-01 13:47 61.62280 -2.62592 36035 ft 465 kts 288°
2026-05-01 13:47 61.64999 -2.74825 36027 ft 465 kts 288°
2026-05-01 13:48 61.67729 -2.87168 36029 ft 465 kts 288°
2026-05-01 13:48 61.70444 -2.99526 36026 ft 465 kts 288°
2026-05-01 13:49 61.73148 -3.11898 36023 ft 464 kts 288°
2026-05-01 13:49 61.75839 -3.24292 36023 ft 464 kts 288°
2026-05-01 13:50 61.78519 -3.36701 36023 ft 464 kts 288°
2026-05-01 13:50 61.81187 -3.49132 36019 ft 464 kts 288°
2026-05-01 13:51 61.83842 -3.61578 36021 ft 465 kts 288°
2026-05-01 13:51 61.86496 -3.74090 36018 ft 465 kts 287°
2026-05-01 13:52 61.89134 -3.86601 36014 ft 465 kts 287°
2026-05-01 13:52 61.91744 -3.99055 36007 ft 465 kts 287°
2026-05-01 13:53 61.94374 -4.11683 36007 ft 465 kts 287°
2026-05-01 13:53 61.98253 -4.30445 36003 ft 463 kts 287°
2026-05-01 13:54 62.00825 -4.42984 35998 ft 462 kts 287°
2026-05-01 13:54 62.03385 -4.55541 35999 ft 461 kts 287°
2026-05-01 13:55 62.05929 -4.68097 35994 ft 462 kts 287°
2026-05-01 13:55 62.08463 -4.80677 35993 ft 462 kts 286°
2026-05-01 13:56 62.10984 -4.93272 35990 ft 461 kts 286°
2026-05-01 13:56 62.13482 -5.05831 35985 ft 462 kts 286°
2026-05-01 13:57 62.15580 -5.16436 35978 ft 462 kts 286°
2026-05-01 13:57 62.18479 -5.31187 35978 ft 462 kts 286°
2026-05-01 13:58 62.20953 -5.43861 35975 ft 461 kts 285°
2026-05-01 13:58 62.23000 -5.54409 35975 ft 461 kts 285°
2026-05-01 13:59 62.25456 -5.67136 35969 ft 461 kts 285°
2026-05-01 13:59 62.27899 -5.79882 35962 ft 462 kts 285°
2026-05-01 14:00 62.30330 -5.92642 35961 ft 461 kts 285°
2026-05-01 14:00 62.32749 -6.05421 35958 ft 461 kts 285°
2026-05-01 14:01 62.35156 -6.18224 35952 ft 461 kts 285°
2026-05-01 14:01 62.37534 -6.30950 35956 ft 461 kts 285°
2026-05-01 14:02 62.39914 -6.43771 35952 ft 460 kts 285°
2026-05-01 14:02 62.42279 -6.56597 35953 ft 459 kts 285°
2026-05-01 14:03 62.44629 -6.69421 35936 ft 459 kts 285°
2026-05-01 14:03 62.46964 -6.82252 35942 ft 460 kts 285°
2026-05-01 14:04 62.49295 -6.95147 35947 ft 461 kts 285°
2026-05-01 14:04 62.51616 -7.08069 35944 ft 460 kts 285°
2026-05-01 14:05 62.53929 -7.21036 35939 ft 461 kts 285°
2026-05-01 14:05 62.56229 -7.34016 35941 ft 461 kts 285°
2026-05-01 14:06 62.58519 -7.47027 35930 ft 461 kts 284°
2026-05-01 14:06 62.60793 -7.60037 35922 ft 462 kts 284°
2026-05-01 14:07 62.63043 -7.73002 35919 ft 461 kts 284°
2026-05-01 14:08 62.66417 -7.92604 35918 ft 462 kts 284°
2026-05-01 14:08 62.68654 -8.05713 35909 ft 462 kts 284°
2026-05-01 14:09 62.70882 -8.18862 35905 ft 462 kts 284°
2026-05-01 14:09 62.73095 -8.32014 35911 ft 462 kts 284°
2026-05-01 14:10 62.75294 -8.45180 35905 ft 461 kts 284°
2026-05-01 14:10 62.77481 -8.58363 35908 ft 462 kts 284°
2026-05-01 14:11 62.79655 -8.71564 35903 ft 461 kts 284°
2026-05-01 14:11 62.82893 -8.91407 35901 ft 462 kts 284°
2026-05-01 14:12 62.85024 -9.04580 35899 ft 462 kts 284°
2026-05-01 14:12 62.87160 -9.17882 35904 ft 463 kts 284°
2026-05-01 14:13 62.88927 -9.28960 35901 ft 464 kts 284°
2026-05-01 14:13 62.91402 -9.44588 35898 ft 464 kts 284°
2026-05-01 14:14 62.93507 -9.57994 35886 ft 465 kts 284°
2026-05-01 14:14 62.95605 -9.71454 35896 ft 465 kts 284°
2026-05-01 14:15 62.97689 -9.84923 35901 ft 465 kts 284°
2026-05-01 14:15 62.99748 -9.98338 35906 ft 466 kts 284°
2026-05-01 14:16 63.01652 -10.11940 35903 ft 466 kts 282°
2026-05-01 14:16 63.03550 -10.25590 35908 ft 466 kts 282°
2026-05-01 14:17 63.05411 -10.39263 35907 ft 466 kts 282°
2026-05-01 14:17 63.07276 -10.52978 35907 ft 467 kts 282°
2026-05-01 14:18 63.09122 -10.66723 35906 ft 467 kts 282°
2026-05-01 14:18 63.10647 -10.78144 35910 ft 466 kts 282°
2026-05-01 14:19 63.12775 -10.94227 35909 ft 466 kts 282°
2026-05-01 14:19 63.14582 -11.08018 35908 ft 467 kts 282°
2026-05-01 14:20 63.17267 -11.28723 35914 ft 467 kts 282°
2026-05-01 14:21 63.19041 -11.42552 35915 ft 467 kts 282°
2026-05-01 14:21 63.20802 -11.56413 35919 ft 467 kts 282°
2026-05-01 14:22 63.23411 -11.77165 35924 ft 468 kts 282°
2026-05-01 14:22 63.25142 -11.91091 35925 ft 469 kts 282°
2026-05-01 14:23 63.26862 -12.05048 35920 ft 469 kts 282°
2026-05-01 14:23 63.28568 -12.19022 35926 ft 468 kts 282°
2026-05-01 14:24 63.30257 -12.32989 35929 ft 468 kts 282°
2026-05-01 14:24 63.31936 -12.47003 35927 ft 468 kts 282°
2026-05-01 14:25 63.33601 -12.61032 35931 ft 469 kts 281°
2026-05-01 14:25 63.35256 -12.75106 35934 ft 470 kts 281°
2026-05-01 14:26 63.37714 -12.96263 35936 ft 469 kts 281°
2026-05-01 14:27 63.39322 -13.10273 35935 ft 470 kts 281°
2026-05-01 14:27 63.40928 -13.24405 35942 ft 470 kts 281°
2026-05-01 14:28 63.43314 -13.45650 35946 ft 470 kts 281°
2026-05-01 14:28 63.44882 -13.59798 35947 ft 470 kts 281°
2026-05-01 14:29 63.46440 -13.73990 35944 ft 470 kts 281°
2026-05-01 14:30 63.49513 -14.02405 35955 ft 469 kts 281°
2026-05-01 14:31 63.51779 -14.23749 35958 ft 469 kts 281°
2026-05-01 14:31 63.53263 -14.37908 35962 ft 470 kts 281°
2026-05-01 14:32 63.54752 -14.52268 35958 ft 470 kts 281°
2026-05-01 14:32 63.56210 -14.66478 35963 ft 470 kts 281°
2026-05-01 14:33 63.57663 -14.80789 35963 ft 470 kts 281°
2026-05-01 14:33 63.59101 -14.95108 35964 ft 470 kts 281°
2026-05-01 14:34 63.60526 -15.09457 35965 ft 469 kts 280°
2026-05-01 14:34 63.61934 -15.23795 35965 ft 470 kts 280°
2026-05-01 14:35 63.63330 -15.38171 35964 ft 470 kts 280°
2026-05-01 14:35 63.64711 -15.52554 35967 ft 470 kts 280°
2026-05-01 14:36 63.66078 -15.66946 35970 ft 470 kts 280°
2026-05-01 14:36 63.67432 -15.81375 35964 ft 470 kts 280°
2026-05-01 14:37 63.68760 -15.95696 35965 ft 470 kts 280°
2026-05-01 14:37 63.70086 -16.10152 35967 ft 471 kts 280°
2026-05-01 14:38 63.71397 -16.24622 35968 ft 471 kts 280°
2026-05-01 14:38 63.72694 -16.39117 35971 ft 471 kts 280°
2026-05-01 14:39 63.73977 -16.53629 35968 ft 471 kts 280°
2026-05-01 14:39 63.75243 -16.68126 35968 ft 470 kts 279°
2026-05-01 14:40 63.76493 -16.82613 35973 ft 470 kts 279°
2026-05-01 14:40 63.77730 -16.97128 35967 ft 470 kts 279°
2026-05-01 14:41 63.78949 -17.11637 35972 ft 470 kts 279°
2026-05-01 14:41 63.80155 -17.26158 35977 ft 469 kts 279°
2026-05-01 14:42 63.81343 -17.40656 35981 ft 468 kts 279°
2026-05-01 14:42 63.82510 -17.55085 35988 ft 469 kts 279°
2026-05-01 14:43 63.83670 -17.69619 35991 ft 469 kts 279°
2026-05-01 14:43 63.84816 -17.84167 36008 ft 468 kts 279°
2026-05-01 14:44 63.85947 -17.98723 36008 ft 469 kts 279°
2026-05-01 14:44 63.87614 -18.20562 36019 ft 468 kts 279°
2026-05-01 14:45 63.89248 -18.42419 36028 ft 468 kts 278°
2026-05-01 14:46 63.90318 -18.56998 36038 ft 468 kts 278°
2026-05-01 14:46 63.91719 -18.76411 36041 ft 467 kts 278°
2026-05-01 14:47 63.92754 -18.90984 36051 ft 467 kts 278°
2026-05-01 14:48 63.94279 -19.12895 36055 ft 468 kts 278°
2026-05-01 14:48 63.95773 -19.34847 36070 ft 467 kts 278°
2026-05-01 14:49 63.97704 -19.64019 36058 ft 468 kts 278°
2026-05-01 14:50 63.99586 -19.93375 36068 ft 469 kts 278°
2026-05-01 14:51 64.00525 -20.15560 36062 ft 469 kts 274°
2026-05-01 14:52 64.01254 -20.37815 36063 ft 469 kts 274°
2026-05-01 14:53 64.01950 -20.60108 36067 ft 470 kts 274°
2026-05-01 14:53 64.02390 -20.74979 36076 ft 470 kts 274°
2026-05-01 14:54 64.02819 -20.89867 36082 ft 471 kts 274°
2026-05-01 14:54 64.03232 -21.04786 36089 ft 470 kts 274°
2026-05-01 14:55 64.03630 -21.19673 36090 ft 470 kts 274°
2026-05-01 14:55 64.04010 -21.34486 36101 ft 470 kts 274°
2026-05-01 14:56 64.04377 -21.49381 36097 ft 470 kts 274°
2026-05-01 14:56 64.04728 -21.64262 36105 ft 469 kts 273°
2026-05-01 14:57 64.05063 -21.79103 36108 ft 468 kts 273°
2026-05-01 14:57 64.05537 -22.01379 36106 ft 468 kts 273°
2026-05-01 14:58 64.05834 -22.16226 36100 ft 468 kts 273°
2026-05-01 14:58 64.06116 -22.31092 36122 ft 469 kts 273°
2026-05-01 14:59 64.06383 -22.45958 36125 ft 468 kts 273°
2026-05-01 14:59 64.06635 -22.60836 36128 ft 469 kts 273°
2026-05-01 15:00 64.06984 -22.83101 36122 ft 469 kts 272°
2026-05-01 15:01 64.07198 -22.98001 36121 ft 470 kts 272°
2026-05-01 15:01 64.07398 -23.12941 36121 ft 470 kts 272°
2026-05-01 15:02 64.07582 -23.27853 36129 ft 470 kts 272°
2026-05-01 15:02 64.07750 -23.42779 36140 ft 470 kts 272°
2026-05-01 15:03 64.07904 -23.57734 36139 ft 470 kts 272°
2026-05-01 15:03 64.08042 -23.72651 36138 ft 468 kts 272°
2026-05-01 15:04 64.08164 -23.87509 36145 ft 468 kts 272°
2026-05-01 15:04 64.08272 -24.02380 36144 ft 468 kts 272°
2026-05-01 15:05 64.08363 -24.17236 36146 ft 468 kts 272°
2026-05-01 15:05 64.08440 -24.32031 36148 ft 468 kts 272°
2026-05-01 15:06 64.08502 -24.46935 36144 ft 469 kts 272°
2026-05-01 15:06 64.08549 -24.61841 36148 ft 470 kts 271°
2026-05-01 15:07 64.08580 -24.76787 36154 ft 469 kts 271°
2026-05-01 15:07 64.08596 -24.91653 36153 ft 468 kts 271°
2026-05-01 15:08 64.08597 -25.06526 36154 ft 467 kts 271°
2026-05-01 15:08 64.08583 -25.21377 36155 ft 468 kts 271°
2026-05-01 15:09 64.08553 -25.36269 36160 ft 468 kts 271°
2026-05-01 15:09 64.08509 -25.51053 36161 ft 467 kts 271°
2026-05-01 15:10 64.08449 -25.65922 36161 ft 467 kts 271°
2026-05-01 15:10 64.08332 -25.88186 36166 ft 467 kts 271°
2026-05-01 15:11 64.08180 -26.10474 36169 ft 468 kts 271°
2026-05-01 15:12 64.08060 -26.25242 36173 ft 467 kts 271°
2026-05-01 15:12 64.07852 -26.47511 36175 ft 466 kts 271°
2026-05-01 15:14 64.07430 -26.84508 36179 ft 465 kts 270°
2026-05-01 15:14 64.07133 -27.06673 36176 ft 465 kts 270°
2026-05-01 15:15 64.06683 -27.36251 36178 ft 466 kts 270°
2026-05-01 15:16 64.06174 -27.65723 36181 ft 464 kts 270°
2026-05-01 15:18 64.05455 -28.02596 36183 ft 464 kts 270°
2026-05-01 15:19 64.04812 -28.32044 36187 ft 464 kts 270°
2026-05-01 15:19 64.04292 -28.54087 36183 ft 463 kts 269°
2026-05-01 15:20 64.03742 -28.75987 36183 ft 463 kts 269°
2026-05-01 15:21 64.03355 -28.90654 36186 ft 463 kts 269°
2026-05-01 15:21 64.02954 -29.05327 36185 ft 463 kts 269°
2026-05-01 15:22 64.02324 -29.27304 36184 ft 463 kts 269°
2026-05-01 15:22 64.01886 -29.41941 36183 ft 462 kts 269°
2026-05-01 15:23 64.01432 -29.56586 36186 ft 463 kts 269°
2026-05-01 15:23 64.00965 -29.71211 36187 ft 462 kts 269°
2026-05-01 15:24 64.00483 -29.85837 36195 ft 462 kts 268°
2026-05-01 15:24 64.00068 -30.00337 36209 ft 459 kts 274°
2026-05-01 15:25 64.00503 -30.14834 36203 ft 458 kts 276°
2026-05-01 15:25 64.00984 -30.29323 36200 ft 458 kts 276°
2026-05-01 15:26 64.01445 -30.43812 36198 ft 458 kts 276°
2026-05-01 15:26 64.01894 -30.58320 36201 ft 458 kts 276°
2026-05-01 15:27 64.02327 -30.72815 36188 ft 457 kts 276°
2026-05-01 15:28 64.02950 -30.94528 36186 ft 457 kts 276°
2026-05-01 15:28 64.03346 -31.09001 36185 ft 457 kts 275°
2026-05-01 15:29 64.03912 -31.30643 36183 ft 457 kts 275°
2026-05-01 15:30 64.04565 -31.57302 36179 ft 458 kts 275°
2026-05-01 15:31 64.05576 -32.03282 36180 ft 459 kts 275°
2026-05-01 15:32 64.06140 -32.32393 36175 ft 459 kts 274°
2026-05-01 15:34 64.06877 -32.76058 36174 ft 459 kts 274°